[[{"header":{"parameterUnit":"m.s-1","parameterCategory":1,"la1":30.2991,"la2":30.254,"lo1":-89.0895,"lo2":-89.0444,"dy":0.0017,"dx":0.0017,"nx":28,"ny":28,"refTime":"2023-10-20T09:00:00:Z","depth":0,"parameterNumber":2,"parameterNumberName":"U-component_of_WINDS"},"data":[0,0,0,0,0,0,0,0,0,0,0,0,0,0,0,0,0,0,0,0,0,0,0,0,0,0,0,0,0,0,0,0,0,0,0,0,0,0,0,0,0,0,0,0,0,0,0,0,0,0,0,0,0,0,0,0,0,0,2.6172,2.6173,0,2.6251,2.6252,2.6253,2.6234,2.6232,2.6231,2.6229,2.6311,2.6315,2.6318,0,0,0,0,0,0,0,0,0,0,0,0,0,2.6008,2.6011,2.6172,2.6173,2.6174,2.6251,2.6252,2.6253,2.6234,2.6232,2.623,2.6229,2.631,2.6314,2.6319,0,0,0,0,0,0,0,0,0,0,0,0,0,2.6082,2.6012,2.6172,2.6174,2.6175,2.6251,2.6252,2.6253,2.6234,2.6232,2.623,2.6228,2.6309,2.6314,2.6319,2.6399,0,0,2.6336,2.6338,0,0,0,0,0,0,0,0,2.6078,2.6088,2.6173,2.6174,2.6175,2.623,2.6224,2.6302,2.6235,2.6212,2.6229,2.6227,2.6286,2.6293,2.6313,2.6402,2.6406,2.6336,2.634,2.6342,2.6343,0,0,0,0,0,0,0,2.6073,2.6085,2.6204,2.6174,2.6176,2.6172,2.618,2.6239,2.6261,2.6214,2.6212,2.6222,2.6287,2.6308,2.6315,2.6407,2.6336,2.6341,2.6344,2.6346,2.6566,2.6569,0,0,0,0,0,0,2.6066,2.608,2.6201,2.6206,2.612,2.6176,2.6185,2.6215,2.626,2.6265,2.6224,2.6221,2.63,2.6309,2.6318,2.6414,2.6342,2.6347,2.635,2.6564,2.6567,2.657,0,0,0,0,0,0,2.6063,2.6077,2.6198,2.6143,2.6158,2.6182,2.6215,2.6218,2.6239,2.6268,2.6272,2.6242,2.6298,2.631,2.6379,2.6416,2.6349,2.6354,2.6561,2.6565,2.6568,2.6606,0,0,0,0,0,0,2.6058,2.6076,2.6106,2.6144,2.6161,2.6257,2.6217,2.6221,2.6248,2.6245,2.6286,2.629,2.6298,2.6371,2.6384,2.6422,2.6359,2.6557,2.6562,2.6567,2.6601,2.661,2.6618,0,0,0,0,0,2.6052,2.6113,2.6107,2.6122,2.6199,2.6259,2.6269,2.6276,2.6251,2.6282,2.6301,2.6289,2.641,2.6378,2.6393,2.6433,2.6555,2.6561,2.6567,2.6597,2.6609,2.6618,0,0,0,0,0,0,2.6079,2.6118,2.6112,2.6187,2.622,2.6255,2.6294,2.6287,2.6328,2.6323,2.633,2.634,2.641,2.6429,2.6392,2.6513,2.6479,2.6488,2.6497,2.6508,2.6517,2.651,2.6363,0,0,0,0,0,2.6094,2.6139,2.6171,2.6234,2.6251,2.627,2.6297,2.6299,2.6333,2.6347,2.6371,2.6405,2.6451,2.6481,2.6525,2.6604,2.6613,2.664,2.6648,2.6655,2.6663,2.6706,2.6719,2.6589,2.6589,2.6589,0,0,2.6125,2.6152,2.618,2.6241,2.6266,2.6313,2.6282,2.6333,2.6368,2.6355,2.6421,2.644,2.6479,2.6553,2.6587,2.6571,2.6701,2.6663,2.6668,2.6672,2.6714,2.6726,2.6737,2.6593,2.6592,2.6591,0,0,2.6205,2.623,2.6285,2.6312,2.6351,2.6363,2.6377,2.6414,2.6426,2.6492,2.6483,2.6526,2.6605,2.6633,2.6657,2.675,2.6741,2.6764,2.6808,2.6851,2.6861,2.687,2.6903,2.6914,2.6772,2.6772,2.6772,0,2.6238,2.6308,2.6314,2.6367,2.6394,2.6385,2.6441,2.6467,2.6519,2.6538,2.6519,2.6618,2.6644,2.6725,2.6747,2.6768,2.6784,2.6759,2.6859,2.6868,2.6877,2.6908,2.692,2.6774,2.6774,2.6774,2.6774,0,2.6347,2.6396,2.6436,2.6486,2.6518,2.6572,2.6587,2.6619,2.662,2.6634,2.6702,2.6733,2.6783,2.6803,2.6804,2.6884,2.6873,2.6857,2.6823,2.6891,2.6921,2.6933,2.6778,2.6777,2.6776,2.6776,0,0,2.6444,2.6498,2.6512,2.6535,2.6579,2.6617,2.6671,2.672,2.6747,2.6784,2.6829,2.6897,2.6883,2.6911,2.6915,2.6953,2.7024,2.6932,2.6933,2.6947,2.7114,2.7125,2.7139,2.7019,2.7021,2.7023,2.7111,0,2.6527,2.6621,2.663,2.6715,2.6761,2.6754,2.6801,2.6833,2.6849,2.6891,2.6908,2.6956,2.6933,2.695,2.6987,2.7007,2.7057,2.7001,2.7061,2.7063,2.705,2.7154,2.7166,2.7247,2.7122,2.7124,2.7126,0,2.6636,2.6675,2.6765,2.6803,2.6822,2.6865,2.691,2.695,2.6987,2.6996,2.7028,2.7028,2.7085,2.705,2.7128,2.709,2.7116,2.7129,2.7133,2.7137,2.7098,2.7161,2.7274,2.7285,2.7144,2.7143,2.7141,0,2.6696,2.6773,2.6836,2.6856,2.6902,2.6932,2.6953,2.6987,2.7016,2.7057,2.7076,2.7123,2.7148,2.7185,2.7197,2.7171,2.7276,2.7242,2.7284,2.7284,2.7305,2.7304,2.7422,2.7324,2.7324,2.7324,2.7323,0,2.6787,2.6842,2.6864,2.6903,2.6965,2.6975,2.7036,2.7056,2.7087,2.713,2.7128,2.7168,2.7183,2.7227,2.7237,2.7301,2.7312,2.7321,2.7323,2.7321,2.7319,2.7336,2.7331,2.7327,2.7326,2.7326,2.7325,0,2.6865,2.6882,2.695,2.6989,2.7,2.7044,2.7077,2.7115,2.713,2.7185,2.7199,2.7224,2.7275,2.7291,2.7353,2.7361,2.7434,2.7432,2.7421,2.7421,2.7463,2.7458,2.7596,2.7614,2.7505,2.7506,2.7506,0,2.6921,2.6963,2.7006,2.7035,2.7056,2.7103,2.7132,2.7145,2.7176,2.7222,2.7254,2.7305,2.7346,2.7429,2.7452,2.75,2.7498,2.7543,2.7505,2.7502,2.7498,2.7495,2.7499,2.755,2.7551,2.7552,2.7553,0,2.7018,2.7025,2.7067,2.7114,2.7149,2.7186,2.7222,2.7246,2.7263,2.7299,2.7351,2.7383,2.7446,2.7497,2.7546,2.7568,2.7563,2.7565,2.7577,2.7574,2.7566,2.757,2.744,2.7561,2.756,2.7559,2.7559,2.7559,2.7086,2.7123,2.716,2.7207,2.7236,2.727,2.7307,2.7328,2.7372,2.7424,2.7429,2.7485,2.7523,2.7588,2.7613,2.7657,2.7644,2.7662,2.7667,2.7671,2.7673,2.756,2.7666,2.7666,2.7666,2.7666,2.7666,0,2.7183,2.7206,2.725,2.73,2.7338,2.7331,2.7371,2.7403,2.7452,2.7488,2.7528,2.7589,2.7638,2.7667,2.7716,2.7746,2.7746,2.7759,2.7756,2.7761,2.7682,2.7666,2.7759,2.7759,2.7759,2.7759,2.7759,2.7759,2.7237,2.73,2.7311,2.7388,2.7412,2.7466,2.7489,2.7521,2.7549,2.7616,2.7657,2.7676,2.7708,2.7761,2.7806,2.7813,2.7831,2.7845,2.7851,2.7776,2.7767,2.7758,2.7743,2.785,2.785,2.7926,2.7927,2.7928]},{"header":{"parameterUnit":"m.s-1","parameterCategory":1,"la1":30.2991,"la2":30.254,"lo1":-89.0895,"lo2":-89.0444,"dy":0.0017,"dx":0.0017,"nx":28,"ny":28,"refTime":"2023-10-20T09:00:00:Z","depth":0,"parameterNumber":3,"parameterNumberName":"V-component_of_WINDS"},"data":[0,0,0,0,0,0,0,0,0,0,0,0,0,0,0,0,0,0,0,0,0,0,0,0,0,0,0,0,0,0,0,0,0,0,0,0,0,0,0,0,0,0,0,0,0,0,0,0,0,0,0,0,0,0,0,0,0,0,1.5516,1.5517,0,1.5584,1.5585,1.5585,1.5577,1.5576,1.5575,1.5574,1.5641,1.5644,1.5647,0,0,0,0,0,0,0,0,0,0,0,0,0,1.5379,1.5381,1.5516,1.5517,1.5518,1.5584,1.5585,1.5585,1.5577,1.5576,1.5575,1.5574,1.564,1.5643,1.5647,0,0,0,0,0,0,0,0,0,0,0,0,0,1.5442,1.5382,1.5516,1.5522,1.5523,1.5583,1.5585,1.5586,1.5578,1.5576,1.5574,1.5573,1.5639,1.5643,1.5647,1.5706,0,0,1.566,1.5662,0,0,0,0,0,0,0,0,1.5438,1.5447,1.552,1.5522,1.5523,1.557,1.5561,1.5626,1.5578,1.5557,1.5574,1.5572,1.5619,1.5625,1.5641,1.5709,1.5712,1.566,1.5663,1.5665,1.5666,0,0,0,0,0,0,0,1.5434,1.5444,1.5543,1.5521,1.5523,1.5521,1.5528,1.5573,1.5596,1.5559,1.5558,1.5566,1.5619,1.5637,1.5642,1.5713,1.566,1.5664,1.5667,1.5668,1.5831,1.5833,0,0,0,0,0,0,1.5428,1.544,1.5541,1.5545,1.5476,1.5524,1.5532,1.5557,1.5596,1.56,1.5568,1.5566,1.563,1.5637,1.5644,1.5715,1.5665,1.5669,1.5671,1.583,1.5832,1.5834,0,0,0,0,0,0,1.5425,1.5437,1.5538,1.5492,1.5505,1.5528,1.5556,1.5559,1.5577,1.5602,1.5606,1.5581,1.5629,1.5639,1.5691,1.5718,1.5671,1.5674,1.5828,1.583,1.5833,1.5857,0,0,0,0,0,0,1.5421,1.5436,1.5459,1.5493,1.5508,1.5584,1.5558,1.5562,1.5584,1.5582,1.5616,1.562,1.5629,1.5684,1.5695,1.5722,1.5678,1.5825,1.5829,1.5832,1.5854,1.5861,1.5866,0,0,0,0,0,1.5416,1.5463,1.546,1.5473,1.5537,1.5585,1.5594,1.5603,1.5586,1.5609,1.5626,1.5619,1.5713,1.569,1.5701,1.5731,1.5824,1.5828,1.5832,1.5852,1.5859,1.5866,0,0,0,0,0,0,1.5431,1.5468,1.5465,1.5524,1.5552,1.5584,1.5613,1.5611,1.5643,1.564,1.5649,1.5657,1.571,1.5725,1.5699,1.5789,1.5766,1.5772,1.5777,1.5785,1.579,1.5786,1.5681,0,0,0,0,0,1.5441,1.5478,1.5508,1.5557,1.5571,1.559,1.5611,1.5616,1.5645,1.5656,1.5677,1.5704,1.574,1.5763,1.5797,1.5856,1.5863,1.5882,1.5888,1.5893,1.5898,1.5931,1.5939,1.5847,1.5847,1.5847,0,0,1.5462,1.5487,1.551,1.5561,1.5583,1.562,1.56,1.564,1.5668,1.5662,1.5713,1.5728,1.576,1.5816,1.5841,1.583,1.5925,1.5898,1.5902,1.5905,1.5936,1.5945,1.5952,1.585,1.585,1.5849,0,0,1.552,1.5543,1.5586,1.5609,1.5643,1.5655,1.5665,1.5698,1.5708,1.5759,1.5756,1.5788,1.5849,1.5872,1.5891,1.5957,1.5953,1.5968,1.5999,1.603,1.6038,1.6044,1.6068,1.6076,1.5974,1.5974,1.5974,0,1.5542,1.5599,1.5609,1.565,1.5672,1.5669,1.5713,1.5734,1.5777,1.5792,1.5779,1.5856,1.5877,1.5938,1.5954,1.597,1.5982,1.5965,1.6036,1.6043,1.6049,1.6071,1.608,1.5975,1.5975,1.5975,1.5975,0,1.5625,1.5664,1.5695,1.5738,1.5763,1.5806,1.5821,1.5845,1.5848,1.5861,1.5913,1.5937,1.5977,1.5991,1.5994,1.6053,1.6045,1.6034,1.6011,1.6059,1.608,1.6089,1.5978,1.5977,1.5977,1.5976,0,0,1.5694,1.5741,1.5752,1.5771,1.5808,1.5839,1.588,1.5919,1.594,1.597,1.6005,1.6057,1.6047,1.6069,1.6074,1.6101,1.6152,1.6087,1.6088,1.6098,1.6218,1.6226,1.6236,1.6149,1.6151,1.6152,1.6216,0,1.5756,1.5831,1.584,1.5906,1.5943,1.594,1.5977,1.6003,1.6016,1.6048,1.6063,1.6099,1.6084,1.6097,1.6124,1.614,1.6176,1.6135,1.6181,1.6183,1.6174,1.6248,1.6256,1.6315,1.6224,1.6225,1.6227,0,1.5838,1.587,1.5941,1.5972,1.5988,1.6021,1.6057,1.6088,1.6117,1.6125,1.615,1.6151,1.6193,1.6168,1.6227,1.6199,1.6218,1.6229,1.6231,1.6236,1.6208,1.6254,1.6334,1.6343,1.624,1.6239,1.6238,0,1.5881,1.5943,1.5993,1.6009,1.6047,1.607,1.6087,1.6115,1.6138,1.6169,1.6184,1.622,1.6239,1.6266,1.6277,1.6258,1.6335,1.6311,1.6342,1.6342,1.6358,1.6357,1.6443,1.637,1.637,1.637,1.637,0,1.5949,1.5992,1.6013,1.6044,1.6091,1.6101,1.6148,1.6164,1.6189,1.6222,1.6221,1.6252,1.6264,1.6297,1.6305,1.6352,1.6361,1.6368,1.637,1.6368,1.6368,1.6381,1.6377,1.6372,1.6372,1.6371,1.6371,0,1.6006,1.6022,1.6076,1.6108,1.6117,1.6151,1.6178,1.6207,1.622,1.6262,1.6273,1.6293,1.6331,1.6344,1.6391,1.6396,1.6451,1.6449,1.6441,1.6442,1.6472,1.6469,1.657,1.6583,1.6502,1.6503,1.6503,0,1.6049,1.6082,1.6118,1.6141,1.6159,1.6195,1.6218,1.6229,1.6253,1.6289,1.6314,1.6352,1.6384,1.6445,1.6463,1.6499,1.6498,1.653,1.6503,1.65,1.6498,1.6496,1.6499,1.6536,1.6536,1.6537,1.6538,0,1.6123,1.6129,1.6163,1.62,1.6228,1.6257,1.6286,1.6304,1.6319,1.6346,1.6386,1.641,1.6458,1.6496,1.6532,1.6548,1.6545,1.6546,1.6555,1.6554,1.6548,1.6552,1.6455,1.6544,1.6543,1.6543,1.6542,1.6542,1.6174,1.6203,1.6233,1.6271,1.6294,1.632,1.635,1.6366,1.64,1.644,1.6444,1.6487,1.6515,1.6563,1.6581,1.6614,1.6605,1.6618,1.6622,1.6625,1.6627,1.6543,1.6621,1.6621,1.6621,1.6621,1.662,0,1.6248,1.6267,1.6302,1.6342,1.6372,1.6367,1.6398,1.6423,1.6461,1.6488,1.6519,1.6564,1.6601,1.6622,1.6659,1.6681,1.6681,1.669,1.6689,1.6693,1.6634,1.6622,1.669,1.669,1.669,1.669,1.669,1.669,1.629,1.6339,1.6349,1.6409,1.6428,1.647,1.6489,1.6513,1.6534,1.6585,1.6616,1.663,1.6654,1.6693,1.6726,1.6731,1.6744,1.6755,1.6759,1.6704,1.6697,1.669,1.6679,1.6758,1.6758,1.6816,1.6816,1.6816]}]]